This is the latest recevied weather packets stored in our database for station/object K4IR. If no packets are shown the sender has not sent any weather packets the latest 10 day(s).
| Time | Temp. | Humidity | Pressure | Rain* | Wind** | Luminosity | Snow |
|---|---|---|---|---|---|---|---|
| 1788348072 | 21.67° C | 99% | 1019.2 hPa | 0 mm | - | 22 W/m² | - |
| 1788347469 | 21.67° C | 99% | 1019.3 hPa | 0 mm | - | 15 W/m² | - |
| 1788346867 | 21.67° C | 99% | 1019 hPa | 0 mm | - | 9 W/m² | - |
| 1788346266 | 21.67° C | 99% | 1019 hPa | 0 mm | - | 4 W/m² | - |
| 1788345662 | 21.67° C | 99% | 1019 hPa | 0 mm | - | 1 W/m² | - |
| 1788345058 | 21.67° C | 99% | 1018.9 hPa | 0 mm | - | 0 W/m² | - |
| 1788344457 | 21.67° C | 99% | 1018.9 hPa | 0 mm | - | 0 W/m² | - |
| 1788343856 | 21.67° C | 99% | 1018.8 hPa | 0 mm | - | 0 W/m² | - |
| 1788343252 | 21.67° C | 99% | 1018.8 hPa | 0 mm | - | 0 W/m² | - |
| 1788342650 | 21.67° C | 99% | 1018.6 hPa | 0 mm | - | 0 W/m² | - |
| 1788342048 | 21.67° C | 99% | 1018.3 hPa | 0 mm | - | 0 W/m² | - |
| 1788341442 | 21.67° C | 99% | 1018.3 hPa | 0 mm | - | 0 W/m² | - |
| 1788340838 | 21.67° C | 99% | 1018.6 hPa | 0 mm | - | 0 W/m² | - |
| 1788340235 | 21.67° C | 99% | 1018.4 hPa | 0 mm | - | 0 W/m² | - |
| 1788339630 | 21.67° C | 99% | 1018.4 hPa | 0 mm | - | 0 W/m² | - |
| 1788339025 | 21.67° C | 99% | 1018.2 hPa | 0 mm | - | 0 W/m² | - |
| 1788338423 | 21.67° C | 99% | 1018.2 hPa | 0 mm | - | 0 W/m² | - |
| 1788337818 | 21.67° C | 99% | 1018.4 hPa | 0 mm | - | 0 W/m² | - |
| 1788337216 | 22.22° C | 99% | 1018.3 hPa | 0 mm | - | 0 W/m² | - |
| 1788336612 | 22.22° C | 99% | 1018.3 hPa | 0 mm | - | 0 W/m² | - |
| 1788336010 | 22.22° C | 99% | 1018.2 hPa | 0 mm | - | 0 W/m² | - |
| 1788335426 | 22.22° C | 99% | 1018.1 hPa | 0 mm | - | 0 W/m² | - |
| 1788334806 | 22.22° C | 99% | 1018.3 hPa | 0 mm | - | 0 W/m² | - |
| 1788334205 | 22.22° C | 99% | 1018.3 hPa | 0 mm | - | 0 W/m² | - |
| 1788333603 | 22.22° C | 99% | 1018.1 hPa | 0 mm | - | 0 W/m² | - |
* Rain latest hour (hover to see other rain measurements)
** Current wind speed in m/s (hover to see current wind gust speed)